Location: Clatteringshaws Loch
(55.0508°N, 4.2860°W)
Time: 12:43:55
(UTC+00:00)

ALOS - Visible Passes

Search period start: 02 March 2015 00:00
Search period end: 12 March 2015 00:00
Orbit: 686 x 689 km, 97.9° (Epoch: 01 March)

Date Brightness Start Highest point End Pass type
(mag) Time Alt. Az. Time Alt. Az. Time Alt. Az.
02 Mar 3.9 18:44:57 10° E 18:47:50 17° NE 18:50:51 10° NNE visible
02 Mar 2.1 20:23:30 50° SSE 20:24:41 80° ENE 20:29:25 10° NNW visible
02 Mar 4.6 22:02:05 17° W 22:02:50 18° W 22:05:59 10° NW visible
03 Mar 3.2 19:23:25 20° ESE 19:25:39 29° ENE 19:29:42 10° N visible
03 Mar 2.9 21:01:59 43° SW 21:02:57 51° W 21:07:33 10° NNW visible
04 Mar 2.4 20:01:53 34° SE 20:03:37 55° ENE 20:08:13 10° N visible
04 Mar 4.1 21:40:26 24° WSW 21:41:27 26° W 21:45:20 10° NW visible
05 Mar 3.6 19:01:47 12° E 19:04:42 22° ENE 19:08:17 10° N visible
05 Mar 2.3 20:40:21 45° S 20:41:46 76° WSW 20:46:29 10° NNW visible
05 Mar 4.9 22:18:54 12° W 22:20:11 13° W 22:22:17 10° NW visible
06 Mar 2.8 19:40:15 23° ESE 19:42:35 38° ENE 19:46:57 10° N visible
06 Mar 3.5 21:18:48 31° SW 21:20:08 37° W 21:24:29 10° NNW visible
07 Mar 3.9 18:41:03 10° E 18:43:49 16° NE 18:46:43 10° NNE visible
07 Mar 2.2 20:18:43 36° SSE 20:20:38 75° ENE 20:25:21 10° NNW visible
07 Mar 4.5 21:57:17 17° WSW 21:58:43 19° W 22:02:02 10° NW visible
08 Mar 3.3 19:18:37 15° ESE 19:21:36 28° ENE 19:25:36 10° N visible
08 Mar 2.8 20:57:11 35° SSW 20:58:53 55° W 21:03:30 10° NNW visible
09 Mar 2.4 19:57:05 25° SE 19:59:33 52° ENE 20:04:08 10° N visible
09 Mar 4.1 21:35:39 22° SW 21:37:20 27° W 21:41:20 10° NNW visible
10 Mar 3.7 18:57:17 10° ESE 19:00:39 21° NE 19:04:09 10° N visible
10 Mar 2.3 20:35:32 33° S 20:37:41 81° WSW 20:42:25 10° NNW visible
10 Mar 4.9 22:14:06 12° WSW 22:16:02 14° W 22:18:25 10° NW visible
11 Mar 2.9 19:35:26 17° ESE 19:38:31 36° ENE 19:42:50 10° N visible
11 Mar 3.4 21:14:01 27° SSW 21:16:01 40° W 21:20:26 10° NNW visible
